Zurück zum Katalog

DELTA 1 DEB

YO

AktivVLEO
NORAD 228·DEBRIS·🇺🇸 United States

Gestartet Feb 8, 1962 von Cape Canaveral Space Force Station

Loading…

Nächste Überflüge (nächste 24 Stunden)

TLE

AktuellSource: Space-Track

Epoche: Sep 14, 2026, 05:53 UTC

1 00228U 62002C   26257.24563762  .00039973  00000-0  50395-3 0  9995
2 00228  48.4283 201.4941 0002507 186.6719 173.4196 15.59100914456973

Verfolge DELTA 1 DEB in Echtzeit mit AllMySat

Download on the App Store